Location: Ertinghausen
(51.6624°N, 9.7874°E)
Time: 11:38:33
(UTC+00:00)

Okean 1-7 - Pass Details

Date: 23 May 2024
Orbit: 579 x 604 km, 82.5° (Epoch: 18 June)

Event Time Altitude Azimuth Distance (km) Brightness Sun altitude
Exits shadow 01:30:35 17° 230° (SW) 1,548 4.5 -12.1°
Maximum altitude 01:33:25 35° 289° (WNW) 975 3.9 -11.8°
Drops below altitude 10° 01:37:25 10° 356° (N) 1,961 6.5 -11.5°
Sets 01:39:48 0° 5° (N) 2,872 7.7 -11.3°
